Temperature
16 16 16 16 16 16 16 16 15 15 15 15 15 15 15 15 15 15 14 14 14 14 14 14 14 14 13 13 13 13 13 13 13 12 11 11 11 11 11 10 10 10 10
16 16 16 16 16 16 15 15 15 15 15 15 15 15 15 15 15 14 14 14 14 14 14 14 14 13 13 13 13 13 13 12 12 12 11 11 11 10 10 10 10 10 10
16 16 16 15 15 15 15 15 15 15 15 15 15 15 15 14 14 14 14 14 14 14 14 14 13 13 13 13 13 13 12 12 12 12 11 11 11 10 10 10 10 10 10
15 15 15 15 15 15 15 15 15 15 15 15 15 15 15 14 14 14 14 14 14 14 13 13 13 13 13 13 12 12 12 12 12 12 11 11 11 10 10 10 10 10 10
15 15 15 15 15 15 15 15 15 15 15 15 14 14 14 14 14 14 14 14 14 13 13 13 13 13 13 12 12 12 12 12 12 11 11 11 11 10 10 10 10 10 9
15 15 15 15 15 15 14 14 14 14 14 14 14 14 14 14 14 14 14 13 13 13 13 13 13 12 12 12 12 12 12 12 12 11 11 11 11 11 10 10 10 10 9
15 15 14 14 14 14 14 14 14 14 14 14 14 14 14 14 14 13 13 13 13 13 13 13 12 12 12 12 12 12 12 11 11 11 11 11 11 11 10 10 10 10 9
14 14 14 14 14 14 14 14 14 14 14 14 14 14 14 14 13 13 13 13 13 13 13 12 12 12 12 12 12 12 11 11 11 11 11 11 10 10 10 10 9 9 9
14 14 14 14 14 14 14 14 14 13 14 13 13 13 13 13 13 13 13 13 13 12 12 12 12 12 12 12 11 11 11 11 11 10 10 10 10 10 9 9 9 9 9
13 13 13 13 13 13 13 13 13 13 13 13 13 13 13 13 13 13 13 13 12 12 12 12 12 12 12 11 11 11 11 11 11 10 10 10 10 10 9 9 9 9 9
13 13 13 13 13 13 13 13 13 13 13 13 13 13 13 13 13 13 12 12 12 12 12 12 12 11 11 11 11 11 11 10 10 10 10 10 10 10 9 9 9 9 8
13 13 13 13 13 13 13 12 12 12 12 12 12 12 12 12 12 12 12 12 12 12 12 12 11 11 11 11 11 10 10 10 10 10 10 10 9 9 9 9 9 8 8
13 13 12 12 12 12 12 12 12 12 12 12 12 12 12 12 12 12 12 12 12 12 11 11 11 11 11 10 10 10 10 10 9 9 9 9 9 9 9 8 8 8 8
13 12 12 12 12 12 12 12 12 12 12 12 12 12 12 12 12 12 12 11 11 11 11 11 11 10 10 10 10 10 9 9 9 9 9 9 9 8 8 8 8 8 8
12 12 12 12 12 12 12 11 11 12 12 12 12 11 11 11 11 11 11 11 11 11 11 11 10 10 10 10 10 9 9 9 9 9 9 9 8 8 8 8 8 7 7
12 12 12 12 12 11 11 11 11 11 11 11 11 11 11 11 11 11 11 11 11 11 11 10 10 10 10 10 9 9 9 9 9 9 9 8 8 8 8 8 7 7 7
12 12 12 11 11 11 11 11 11 11 11 11 11 11 11 11 11 11 11 10 10 10 10 10 10 10 9 9 9 9 9 9 9 9 8 8 8 8 8 7 7 7 7
12 12 11 11 11 11 11 11 10 10 10 10 10 10 10 10 10 10 10 10 10 10 10 9 9 9 9 9 9 9 9 9 9 8 8 8 8 8 7 7 7 7 7
11 11 11 11 11 11 10 10 10 10 10 10 10 10 10 10 10 10 10 9 9 10 9 9 9 9 9 9 9 9 9 9 8 8 8 8 8 7 7 7 7 6 6
11 11 11 11 10 10 10 10 10 10 10 10 10 10 9 9 9 9 9 9 9 9 9 9 9 9 9 9 8 8 8 8 8 8 8 8 7 7 7 7 6 6 6
10 10 10 10 10 10 10 10 10 9 9 9 9 9 9 9 9 9 9 9 9 9 9 9 9 9 9 8 8 8 8 8 8 8 8 7 7 7 7 6 6 6 6
10 10 10 10 10 10 10 10 9 9 9 9 9 9 9 9 9 9 9 9 9 9 9 9 9 9 9 8 8 8 8 8 8 7 7 7 7 7 6 6 6 6 5
10 10 10 10 10 10 9 9 9 9 9 9 9 9 9 9 8 9 9 9 9 9 9 9 9 9 9 8 8 8 8 8 8 7 7 7 7 6 6 6 6 5 5
10 9 9 9 9 9 9 9 9 8 8 8 8 8 8 8 8 8 9 9 9 9 8 8 8 8 8 8 8 8 8 7 7 7 7 7 6 6 6 6 5 5 5
9 9 9 9 9 9 8 8 8 8 8 8 8 8 8 8 8 8 8 8 8 8 8 8 8 8 8 8 8 8 7 7 7 7 7 6 6 6 6 5 5 5 5
9 9 8 8 8 8 8 8 8 8 8 8 8 8 8 8 8 8 8 8 8 8 8 8 8 8 8 7 7 7 7 7 7 6 6 6 6 6 5 5 5 4 4
Wind_Speed
3 3 2 3 3 4 4 5 5 5 5 5 5 4 4 3 3 4 4 4 4 2 2 3 2 2 2 2 2 2 2 3 3 1 0 1 2 3 4 4 5 5 5
3 3 3 3 3 4 4 4 4 5 5 5 4 4 4 4 4 4 5 4 4 3 3 3 2 2 2 2 2 2 2 2 4 3 1 1 1 2 3 3 3 3 4
3 3 3 3 3 3 4 3 3 4 5 5 5 5 4 4 4 4 4 4 4 3 3 3 3 4 3 2 2 3 2 3 3 4 2 1 1 1 2 1 2 2 2
4 4 4 4 4 4 3 3 3 4 5 5 5 5 5 5 4 3 4 4 3 3 2 3 3 4 4 4 3 3 4 4 4 4 3 1 1 1 2 2 1 1 1
4 4 4 4 3 3 3 2 2 3 4 4 5 4 4 4 4 4 4 4 4 3 2 2 3 4 5 5 4 4 5 4 4 4 3 2 1 2 2 1 1 0 1
4 4 3 3 3 3 2 2 2 2 2 3 4 4 4 4 5 6 5 4 4 4 2 1 2 2 4 5 6 7 7 6 5 4 3 3 3 2 2 2 2 1 1
3 3 2 3 3 3 3 3 3 2 2 2 3 4 4 5 6 7 8 5 4 4 3 3 2 2 3 3 4 5 5 6 8 7 5 4 4 4 4 3 2 3 2
3 2 2 3 3 3 4 3 2 2 2 2 2 3 4 4 6 7 8 5 4 3 3 3 4 3 3 4 4 4 2 2 5 5 5 5 5 5 6 5 4 3 1
3 3 3 4 4 3 4 3 3 2 2 2 2 3 4 4 6 7 7 4 3 2 2 3 4 4 5 7 6 4 3 1 2 5 5 5 6 7 7 4 3 3 1
3 3 3 4 5 4 4 3 2 2 2 2 2 2 4 3 5 7 7 4 3 2 2 2 4 5 6 7 6 5 4 2 2 3 3 2 3 5 7 6 5 3 2
3 3 3 4 5 4 4 3 3 3 2 2 2 2 2 3 5 7 7 5 5 4 3 2 3 6 7 7 7 5 6 4 3 3 2 1 1 2 3 4 5 4 4
3 3 3 4 4 3 4 3 3 3 3 2 2 1 1 2 3 5 7 7 6 5 4 3 4 6 7 7 6 6 7 6 3 3 2 2 2 2 2 3 4 5 4
3 4 3 3 3 4 4 4 3 3 3 2 2 2 2 2 2 5 6 7 7 4 4 5 5 6 6 5 6 7 6 4 3 3 3 3 3 2 2 2 2 2 1
5 4 3 3 3 3 3 3 4 4 4 3 3 4 3 2 3 3 3 3 4 4 3 4 5 5 3 4 4 4 4 4 5 4 4 3 2 2 2 2 2 1 0
5 4 3 3 4 3 3 4 5 5 6 6 5 5 5 5 6 7 5 5 4 4 4 2 1 2 2 2 2 2 3 3 4 3 3 3 3 3 2 2 2 2 2
5 4 4 3 3 3 3 2 4 5 6 8 8 7 6 7 7 7 8 7 7 8 5 3 4 4 5 5 5 4 4 4 5 4 4 4 4 4 3 2 2 3 3
6 5 4 4 3 3 3 3 2 2 3 5 7 8 8 7 7 7 7 7 8 9 4 5 5 6 6 5 5 5 5 5 4 5 5 5 5 4 4 4 4 3 4
5 6 5 4 4 4 4 4 4 4 3 3 4 6 7 7 8 8 7 6 4 5 5 5 6 6 6 6 6 6 5 4 4 5 5 5 5 5 5 5 5 5 5
5 4 4 4 4 4 4 4 4 4 4 3 2 2 5 5 5 6 8 5 6 6 6 6 5 5 6 6 6 6 6 6 6 6 6 6 6 5 5 6 5 6 5
5 6 5 4 3 4 4 4 4 4 4 4 4 4 3 2 3 4 5 5 5 6 6 6 6 6 6 6 6 6 6 6 6 6 6 6 6 6 6 7 6 5 5
4 5 6 4 4 5 5 5 5 4 5 5 5 5 7 5 6 6 6 6 6 7 7 6 6 6 6 6 6 6 7 7 7 7 6 6 6 6 6 6 6 6 5
4 4 4 4 4 4 5 5 4 4 5 5 4 4 7 5 5 5 6 6 7 6 6 6 6 7 7 7 7 7 7 7 7 6 7 7 6 6 6 6 5 5 5
4 4 4 3 4 4 4 4 4 4 4 5 5 4 5 5 6 6 6 6 6 6 6 6 6 6 7 8 9 9 9 9 8 8 7 7 6 6 6 6 7 6 6
4 4 4 3 3 3 4 4 4 4 4 4 4 4 5 5 5 6 6 5 5 6 6 6 7 9 10 9 10 11 12 12 11 10 10 8 7 6 6 6 6 7 6
3 3 3 3 4 4 3 4 4 4 4 4 4 4 4 4 5 5 4 4 5 6 7 7 7 8 10 11 11 11 12 13 13 11 9 8 7 7 6 6 6 6 6
3 3 3 3 3 3 4 4 4 4 4 4 4 4 4 5 5 5 4 4 5 5 6 6 8 8 9 10 11 11 11 11 12 11 10 7 7 6 6 6 6 6 6
Wind_Direction
182 185 187 191 179 167 177 189 189 187 177 174 175 170 167 167 159 158 166 160 153 147 138 141 146 144 136 136 136 125 120 125 136 161 35 113 124 126 117 119 123 116 117
178 165 172 176 164 166 176 189 186 184 180 180 176 172 174 175 168 165 177 171 164 162 164 145 158 156 138 139 139 133 130 127 134 139 109 97 117 149 143 130 128 132 133
162 154 154 160 156 167 177 178 175 174 175 177 178 181 176 173 170 172 173 170 171 171 168 163 170 154 153 152 147 140 135 124 111 129 130 92 80 109 96 95 100 82 120
162 155 161 173 172 177 180 172 176 180 176 181 182 181 175 170 170 175 166 159 158 159 165 170 170 165 170 167 156 150 136 121 114 121 124 115 101 89 104 108 69 33 33
158 159 178 184 174 167 164 159 159 172 184 179 167 171 170 169 177 172 166 157 154 151 152 167 168 165 163 162 157 156 144 135 129 129 137 117 116 128 167 167 144 87 3
158 168 173 166 164 160 152 135 133 142 161 160 167 173 181 191 179 171 161 151 151 152 160 170 158 151 145 147 145 151 151 151 156 152 160 168 190 182 159 151 138 125 273
152 151 152 165 167 165 155 134 137 141 128 148 173 170 177 186 172 163 157 152 155 167 173 170 168 152 130 135 130 132 145 156 159 163 165 190 189 191 162 150 155 157 195
158 156 158 168 171 163 147 151 160 149 142 155 169 170 171 182 167 159 153 151 153 168 174 170 167 169 157 146 134 126 134 161 177 169 178 189 183 176 174 175 172 150 105
179 185 187 185 176 163 162 166 165 153 159 177 182 175 176 184 167 159 150 152 159 181 185 175 171 173 160 145 141 143 139 154 140 159 162 163 163 162 153 129 124 119 180
204 203 201 190 177 173 181 178 169 165 180 184 194 185 182 184 173 164 157 158 162 175 169 181 172 165 157 150 153 155 161 187 144 121 113 120 143 153 159 163 168 160 165
214 201 193 188 184 179 175 169 162 160 160 170 181 191 189 187 182 175 169 169 171 169 176 193 198 175 165 162 161 168 177 166 159 149 137 116 105 126 155 164 168 169 175
197 194 186 188 188 174 164 169 166 159 160 166 164 184 222 211 192 187 181 178 169 169 187 201 198 179 174 169 172 173 158 141 135 139 148 180 196 209 197 173 173 175 182
191 191 193 188 179 168 170 173 168 163 169 184 186 201 218 224 204 189 185 183 176 177 190 189 186 178 175 178 181 173 159 151 152 162 191 213 218 207 158 138 139 143 152
186 192 191 186 184 179 179 179 181 185 190 197 204 211 221 218 209 199 195 191 182 180 183 175 167 167 168 173 174 175 173 178 180 194 204 208 187 167 175 174 169 165 211
186 191 191 192 189 190 198 202 202 206 200 202 212 208 204 218 220 202 189 195 196 188 158 136 145 159 179 193 196 194 189 184 197 200 191 188 188 188 198 186 173 167 196
186 191 194 193 192 192 203 243 251 230 223 217 214 212 220 218 210 202 203 200 188 168 152 178 198 203 205 208 209 211 209 209 209 201 197 198 199 202 204 197 188 191 212
193 196 195 193 195 198 198 201 238 295 281 238 227 222 221 214 206 200 201 198 186 170 182 204 209 212 215 215 213 212 217 217 206 201 206 208 205 204 201 205 208 213 226
199 200 196 197 199 201 206 210 208 214 244 271 259 229 220 216 209 199 184 164 183 194 213 216 217 217 216 217 217 218 218 211 207 210 213 211 206 204 206 211 212 217 226
202 200 200 200 202 204 207 212 217 217 224 239 255 251 225 220 210 197 176 190 202 212 220 225 224 220 217 218 219 218 216 215 214 212 215 213 210 208 215 218 218 220 221
206 213 205 203 206 209 210 213 220 221 224 227 228 227 198 178 199 206 208 215 218 221 222 225 225 222 218 218 219 217 217 219 216 216 217 214 211 210 214 214 215 216 221
205 210 212 214 214 214 213 217 219 220 226 231 232 222 200 203 214 217 217 221 224 227 226 226 226 222 221 221 219 218 220 223 220 217 217 214 210 213 216 215 216 217 216
200 205 207 212 218 217 217 218 217 221 228 234 239 229 212 214 220 225 227 231 232 231 225 223 228 223 217 216 217 219 221 224 222 220 219 219 215 214 212 212 214 215 212
195 201 209 220 219 218 219 221 219 223 228 233 227 219 213 221 228 230 232 234 236 233 227 221 226 228 222 219 216 214 220 222 217 212 214 217 214 213 212 213 212 212 215
195 198 206 216 218 213 217 223 224 226 227 230 227 221 218 222 230 235 238 242 235 231 228 225 226 228 227 224 224 223 223 222 217 211 206 210 213 212 209 210 212 211 214
190 195 202 209 212 213 219 225 229 230 231 234 231 230 230 232 236 240 244 246 242 239 235 231 229 228 227 225 224 226 227 224 219 213 206 203 206 206 205 208 212 212 216
200 206 208 209 211 213 218 223 228 232 233 237 238 234 233 236 241 244 246 246 248 247 242 235 233 232 231 228 227 225 224 220 217 213 207 199 201 206 203 210 210 211 212
Height
1528 1529 1530 1531 1532 1533 1534 1535 1536 1537 1538 1539 1540 1541 1541 1542 1543 1544 1545 1545 1546 1546 1546 1546 1546 1547 1547 1547 1547 1547 1547 1548 1547 1548 1548 1548 1549 1549 1549 1549 1549 1549 1549
1526 1527 1528 1529 1530 1531 1532 1533 1534 1535 1536 1537 1538 1539 1539 1540 1541 1542 1543 1543 1544 1544 1544 1545 1545 1545 1545 1546 1546 1546 1546 1546 1546 1546 1547 1547 1548 1549 1549 1549 1549 1549 1548
1524 1525 1526 1527 1528 1529 1530 1531 1532 1533 1534 1535 1536 1536 1537 1538 1539 1540 1540 1541 1541 1542 1543 1543 1543 1544 1544 1544 1544 1545 1545 1545 1545 1545 1546 1547 1547 1548 1548 1548 1548 1548 1548
1522 1523 1524 1525 1526 1527 1528 1529 1530 1531 1532 1533 1534 1534 1535 1536 1537 1537 1538 1538 1539 1540 1541 1541 1542 1542 1542 1542 1543 1543 1543 1544 1544 1545 1545 1545 1546 1546 1547 1547 1547 1547 1547
1520 1521 1522 1523 1524 1525 1526 1527 1528 1529 1529 1530 1531 1532 1533 1534 1535 1535 1536 1536 1537 1538 1539 1539 1540 1540 1541 1541 1541 1541 1542 1542 1543 1543 1543 1544 1544 1544 1545 1546 1546 1546 1546
1518 1519 1520 1520 1521 1523 1524 1525 1526 1527 1527 1528 1529 1530 1531 1531 1532 1533 1534 1534 1535 1536 1536 1537 1538 1538 1539 1539 1540 1540 1541 1541 1541 1542 1542 1542 1542 1543 1544 1544 1544 1544 1544
1515 1517 1518 1518 1519 1520 1522 1523 1524 1524 1525 1526 1526 1527 1528 1529 1530 1531 1531 1532 1533 1533 1534 1535 1535 1536 1537 1537 1538 1538 1539 1540 1540 1541 1540 1541 1541 1542 1542 1542 1542 1543 1543
1513 1514 1515 1516 1517 1518 1519 1520 1521 1522 1523 1523 1524 1525 1526 1526 1527 1528 1529 1530 1530 1531 1532 1532 1533 1533 1534 1535 1535 1536 1537 1537 1538 1539 1539 1539 1540 1541 1541 1541 1541 1541 1541
1512 1513 1513 1514 1515 1516 1517 1518 1519 1520 1521 1521 1522 1523 1523 1524 1525 1526 1527 1528 1528 1529 1529 1530 1531 1531 1532 1533 1533 1533 1534 1535 1536 1537 1537 1538 1538 1539 1539 1539 1539 1538 1538
1509 1510 1511 1512 1513 1514 1515 1516 1517 1518 1518 1519 1520 1520 1521 1521 1522 1523 1525 1525 1525 1526 1527 1528 1528 1529 1529 1530 1531 1531 1532 1533 1534 1534 1535 1535 1536 1536 1536 1536 1536 1536 1536
1507 1508 1509 1510 1511 1512 1513 1514 1514 1515 1516 1516 1517 1518 1519 1519 1520 1521 1522 1522 1523 1524 1524 1525 1525 1526 1527 1528 1528 1529 1530 1531 1531 1532 1532 1532 1533 1533 1533 1533 1534 1534 1533
1504 1505 1506 1507 1508 1509 1510 1511 1512 1513 1513 1513 1514 1515 1516 1516 1517 1518 1519 1520 1521 1521 1521 1522 1523 1523 1524 1525 1526 1526 1527 1528 1529 1529 1529 1529 1529 1530 1530 1530 1531 1531 1531
1501 1502 1503 1505 1506 1507 1507 1508 1509 1510 1510 1511 1511 1512 1512 1513 1514 1515 1516 1517 1517 1518 1518 1519 1520 1521 1521 1522 1523 1524 1524 1525 1525 1525 1525 1525 1526 1527 1527 1527 1527 1527 1527
1498 1499 1501 1502 1502 1503 1504 1505 1506 1506 1507 1507 1508 1508 1509 1510 1510 1511 1512 1513 1514 1514 1515 1516 1517 1517 1518 1518 1519 1520 1520 1521 1521 1522 1522 1522 1523 1523 1523 1523 1523 1523 1523
1495 1496 1497 1498 1499 1500 1501 1502 1502 1503 1504 1504 1505 1505 1506 1506 1507 1508 1508 1509 1510 1510 1511 1511 1512 1513 1513 1514 1515 1515 1516 1517 1517 1518 1518 1518 1518 1519 1519 1519 1519 1519 1519
1491 1492 1494 1495 1496 1497 1497 1498 1499 1500 1500 1501 1502 1502 1502 1503 1504 1504 1505 1505 1506 1507 1507 1507 1507 1508 1508 1509 1510 1511 1511 1512 1513 1513 1514 1514 1514 1514 1514 1515 1515 1515 1514
1487 1488 1490 1491 1492 1492 1493 1494 1494 1495 1496 1497 1497 1498 1498 1499 1499 1500 1501 1501 1502 1503 1502 1502 1502 1503 1504 1505 1505 1506 1507 1508 1508 1509 1509 1509 1509 1509 1510 1510 1510 1510 1510
1484 1485 1486 1487 1488 1488 1489 1490 1490 1490 1491 1491 1492 1493 1494 1495 1495 1496 1496 1497 1497 1497 1497 1497 1498 1498 1499 1500 1501 1501 1502 1502 1503 1503 1504 1504 1504 1504 1504 1504 1505 1505 1505
1480 1481 1482 1483 1484 1485 1485 1486 1486 1486 1487 1487 1487 1488 1489 1490 1490 1491 1491 1492 1491 1492 1492 1492 1493 1493 1494 1495 1495 1496 1497 1497 1497 1498 1498 1498 1498 1498 1498 1499 1499 1499 1499
1475 1476 1478 1479 1479 1480 1481 1481 1481 1482 1482 1482 1482 1483 1484 1485 1484 1485 1485 1486 1486 1487 1487 1487 1487 1488 1488 1489 1489 1490 1491 1491 1491 1492 1492 1492 1492 1492 1493 1493 1493 1493 1493
1471 1472 1473 1474 1475 1475 1476 1476 1477 1477 1477 1477 1478 1478 1479 1479 1480 1480 1480 1480 1481 1481 1481 1482 1482 1482 1483 1483 1483 1484 1484 1484 1485 1485 1486 1486 1486 1486 1487 1487 1487 1487 1487
1467 1467 1468 1469 1470 1471 1471 1471 1472 1472 1472 1472 1472 1473 1474 1474 1475 1475 1475 1475 1475 1475 1476 1476 1476 1476 1477 1477 1477 1477 1478 1478 1478 1479 1479 1479 1480 1480 1480 1481 1481 1481 1481
1462 1463 1464 1464 1465 1466 1466 1466 1467 1467 1467 1467 1467 1468 1468 1468 1469 1469 1469 1469 1469 1470 1470 1470 1470 1470 1470 1471 1471 1471 1471 1472 1472 1473 1473 1473 1473 1473 1474 1474 1474 1474 1475
1458 1458 1459 1460 1460 1461 1461 1461 1462 1462 1462 1462 1462 1462 1462 1463 1463 1463 1463 1463 1463 1463 1464 1464 1464 1464 1464 1464 1464 1465 1465 1466 1466 1467 1467 1467 1467 1467 1468 1468 1468 1468 1469
1454 1454 1455 1455 1456 1456 1456 1457 1457 1457 1457 1457 1457 1457 1457 1457 1457 1457 1457 1457 1457 1457 1457 1458 1458 1457 1457 1457 1458 1458 1459 1460 1460 1460 1460 1461 1461 1461 1461 1462 1462 1462 1463
1450 1450 1451 1451 1451 1452 1452 1452 1452 1452 1452 1451 1452 1452 1452 1452 1452 1452 1451 1451 1451 1451 1451 1451 1451 1451 1451 1451 1451 1452 1452 1453 1453 1454 1454 1454 1455 1455 1455 1455 1456 1456 1456